Regional Weather Roundup
Issued by NWS State College, PA

Home | Current Version | Previous Version | Graphics & Text | Print | Product List | Glossary Off
Versions: 1 2 3 4 5 6 7 8 9 10 11 12 13 14 15 16 17 18 19 20 21 22 23 24 25 26 27 28 29 30 31 32 33 34 35 36 37 38 39 40 41 42 43 44 45 46 47 48 49 50

000
ASUS41 KCTP 231303
RWRCTP

REGIONAL WEATHER ROUNDUP
NATIONAL WEATHER SERVICE STATE COLLEGE PA
800 AM EST MON JAN 23 2017

Note: "fair" indicates few or no clouds below 12,000 feet with no
significant weather and/or obstructions to visibility.

* = STATION THAT DOES NOT REPORT PRECIPITATION /E.G. RAIN...SNOW...ETC/
    THUNDER OR FOG.

PAZ002>004-007>009-013>016-020>023-029>032-231400-
WESTERN PENNSYLVANIA

CITY           SKY/WX    TMP DP  RH WIND       PRES   REMARKS
ERIE           CLOUDY    38  37  97 NE10      29.64R FOG
MEADVILLE      LGT RAIN  47  42  83 E13       29.60R
FRANKLIN*        N/A     46  39  76 E10G21    29.61R
NEW CASTLE     LGT RAIN  48  43  82 E9        29.58R
BEAVER COUNTY  LGT RAIN  46  43  87 E8G16     29.55R
BUTLER*        CLOUDY    46  39  76 E16G25    29.57S
PITTSBURGH INT LGT RAIN  47  44  90 E14       29.52R
PITTSBURGH     LGT RAIN  47  40  76 NE8       29.51R
INDIANA*       CLOUDY    45  41  87 E17G24    29.59S
LATROBE        LGT RAIN  46  41  81 E14       29.53S
WASHINGTON CO* CLOUDY    46  41  81 E15G22    29.50R
$$

PAZ004>006-010>012-017>019-024>028-033>037-041-042-045-046-049>053-231400-
CENTRAL PENNSYLVANIA

CITY           SKY/WX    TMP DP  RH WIND       PRES   REMARKS
BRADFORD       CLOUDY    44  41  89 E14       29.64R
DUBOIS         CLOUDY    44  38  79 E14G25    29.60R
CLEARFIELD     LGT RAIN  43  41  93 E15G23    29.63R
JOHNSTOWN      LGT RAIN  40  39  97 E13G25    29.53R FOG
ALTOONA        LGT RAIN  42  39  89 E17G25    29.59R FOG
STATE COLLEGE  RAIN      41  37  87 E9G17     29.64S
WILLIAMSPORT   CLOUDY    44  35  70 E13       29.70F
SELINSGROVE    CLOUDY    43  38  82 E13G21    29.70S
FT INDIANTOWN  DRIZZLE   41  41 100 E16G33    29.68R
CAPITAL CITY   LGT RAIN  43  38  82 E18G28    29.66R
HARRISBURG     LGT RAIN  43  40  89 E17G31    29.65S
YORK           LGT RAIN  42  41  96 E24G33    29.62R FOG
$$

PAZ038>040-043-044-047-048-054-055-060>062-067>071-231400-
EASTERN PENNSYLVANIA

CITY           SKY/WX    TMP DP  RH WIND       PRES   REMARKS
SCRANTON       CLOUDY    39  35  86 E15G25    29.75R
MOUNT POCONO   FOG       32  31  96 E22G36    29.72S VSB 1/2
ALLENTOWN      CLOUDY    43  34  70 E18G30    29.73F
QUAKERTOWN*    CLOUDY    39  37  93 E16G26    29.72F
READING        CLOUDY    41  39  93 E14G30    29.68F
LANCASTER      CLOUDY    43  40  89 E18G33    29.65S
COATESVILLE    MIX PCPN  39  39 100 E23G41    29.66S
POTTSTOWN      LGT RAIN  39  37  92 E10G22    29.71S FOG
BLUE BELL      CLOUDY    37  36  93 E24G36    29.70F
DOYLESTOWN     LGT RAIN  41  38  89 VRB6G16   29.72F
WILLOW GROVE   NOT AVBL
NORTH PHILA    CLOUDY    42  38  85 E28G36    29.74F
PHILADELPHIA   LGT RAIN  42  38  85 NE23G40   29.69F FOG
$$



USA.gov is the U.S. government's official web portal to all federal, state and local government web resources and services.